Welcome to the New NWS' Forecast!
Most changes are behind the scenes, but click here for differences you might notice.
Latest weather observations around

Eufaula Municipal Airport (KEUF)

Using International System of Units (Switch to English Units)
Date/ Time (CDT) Wind (kph) Vis. (km) Weather Sky Cond. Temp (°C) Rel. Humidity Wind Chill (°C) Heat Index (°C) Pressure Precip. (cm)
Air Dwpt 6 hour Altimeter (hPa) Sea level (hPa) 1 hr 3 hr 6 hr
Max Min
Aug 18 09:49 SW 9 16.09 Mostly Cloudy BKN016 29 26     82%   35 1019.7        
Aug 18 09:17 SW 9 16.09 Partly Cloudy SCT009 28 26     88%   33 1019.7        
Aug 18 08:58 SSW 8 16.09 Mostly Cloudy BKN007 BKN011 27 25     90%   30 1019.7 1019.3      
Aug 18 07:58 5 16.09 Cloudy OVC003 26 25     96%   27 1020.3 1019.7      
Notice The following observation data may not be complete
Aug 18 07:33   4.83 Fog/Mist OVC002          %              
Notice The following observation data may not be complete
Aug 18 07:26   4.02 Fog/Mist OVC003          %              
Aug 18 06:19 S 5 0.8 Fog VV003 24 24     100%   25 1019.7        
Aug 18 06:12 Calm 2.41 Fog/Mist OVC003 24 24     100%   25          
Aug 18 04:58 Calm 16.09 Mostly Cloudy BKN009 23 22     96%   24 1019.7 1019.1      
Aug 18 03:58 Calm 16.09 Clear CLR 23 22     96%   24 1019.3 1018.9      
Aug 18 02:58 Calm 16.09 Clear CLR 23 22     96%   24 1019.3 1018.9      
Aug 18 01:58 Calm 16.09 Clear CLR 23 22     96%   24 1019.7 1019.2      
Aug 17 22:58 Calm 16.09 Clear CLR 23 23     97%   24   1019.9 0    
Aug 17 21:58 Calm 16.09 Light Rain SCT110 24 23     96%   25   1020.3 0 0  
Aug 17 20:30 S 5 11.27 Light Rain BKN095 BKN120 24 23     96%   25     0    
Aug 17 17:23 ENE 5 4.83 Thunderstorms and Rain and Fog/Mist FEW030 BKN075 OVC095 25 24     94%   26     0    
Aug 17 17:21 5 2.82 Thunderstorms and Rain and Fog/Mist FEW030 BKN075 OVC095 25 23     90%   26     0    
Aug 17 17:17 Calm 3.22 Thunderstorms and Heavy Rain and Fog/Mist SCT030 BKN046 OVC100 25 23     90%   26     0    
Aug 17 16:58 S 11 11.27 Thunderstorms and Rain FEW034 SCT070 BKN100 26 24     90%   28   1018.5 0    
Aug 17 14:58 W 8 16.09 Mostly Clear FEW055 FEW075 29 25     80%   34 1019.3 1018.8 0    
Aug 17 13:58 S 13 16.09 Mostly Clear FEW041 33 23     57%   38 1020 1019.3      
Aug 17 12:58 9 16.09 Partly Cloudy FEW031 SCT041 32 24     62%   38 1020.7 1020.1      
Aug 17 11:58 9 16.09 Mostly Cloudy FEW026 BKN033 31 24     68%   36 1021.3 1020.7      
Aug 17 10:58 11 16.09 Mostly Clear FEW022 31 24     68%   36 1021.7 1021.3      
Aug 17 09:58 S 11 16.09 Mostly Clear FEW014 29 24     72%   34 1022.4 1021.8      
Aug 17 09:45 8 16.09 Partly Cloudy FEW012 SCT018 28 24     79%   33 1022.4        
Aug 17 09:31 5 16.09 Mostly Cloudy SCT012 BKN020 BKN041 28 24     79%   33 1022.4        
Aug 17 09:11 Calm 16.09 Mostly Cloudy SCT010 BKN013 28 24     79%   32 1022.4        
Aug 17 08:58 SE 5 16.09 Mostly Cloudy BKN008 27 24     85%   29 1022.4 1021.8      
Aug 17 08:44 5 16.09 Mostly Cloudy BKN007 BKN022 27 24     87%   30 1022        
Aug 17 08:20 SSE 5 16.09 Mostly Cloudy FEW005 BKN023 BKN039 26 24     90%   27 1022.4        
Aug 17 08:13 S 5 16.09 Mostly Cloudy FEW005 SCT023 BKN039 26 24     90%   27 1022.4        
Aug 17 07:58 5 16.09 Partly Cloudy FEW005 SCT023 SCT028 25 24     96%   26 1022 1021.7      
Aug 17 07:43 S 5 16.09 Partly Cloudy FEW005 SCT024 25 24     94%   26 1022        
Aug 17 06:58 Calm 16.09 Partly Cloudy FEW026 SCT055 24 24     97%   25 1022.4 1021.8      
Aug 17 06:12 Calm 16.09 Partly Cloudy SCT005 24 23     96%   25 1022        
Aug 17 05:58 Calm 16.09 Mostly Cloudy BKN005 24 23     96%   25 1022 1021.5      
Aug 17 04:58 Calm 16.09 Mostly Cloudy BKN006 24 23     96%   25 1021.3 1020.9      
Aug 17 04:32 Calm 16.09 Mostly Cloudy BKN006 23 23     100%   24 1021        
Aug 17 04:22 Calm 16.09 Partly Cloudy SCT005 24 23     96%   25 1021        
Aug 17 03:58 Calm 16.09 Cloudy OVC005 24 23     96%   25 1020.7 1020.4      
Aug 17 02:39 SSE 8 16.09 Mostly Cloudy BKN006 24 23     96%   25 1020.7        
Aug 17 02:25 S 8 16.09 Mostly Clear FEW006 24 23     96%   25 1020.7        
Aug 17 01:58 Calm 16.09 Clear CLR 24 23     94%   25 1021 1020.6      
Aug 17 00:58 Calm 16.09 Clear CLR 24 23     94%   25 1021.3 1020.7      
Aug 16 23:58 Calm 16.09 Clear CLR 23 23     97%   24 1021.7 1021.4      
Aug 16 22:58 Calm 16.09 Clear CLR 23 23     97%   24 1021.7 1021.3      
Aug 16 21:58 Calm 16.09 Clear CLR 24 23     94%   25 1021 1020.7      
Aug 16 20:58 Calm 16.09 Clear CLR 24 23     94%   25 1021 1020.6      
Aug 16 19:58 Calm 16.09 Clear CLR 24 23     94%   25 1020.7 1020.4      
Aug 16 18:58 Calm 16.09 Clear CLR 26 23     82%   28 1020.7 1020.2     0
Aug 16 17:58 5 16.09 Clear CLR 27 23     79%   29 1020.3 1020      
Aug 16 16:58 SW 9 16.09 Clear CLR 27 23     82%   29 1020.3 1020      
Aug 16 16:30 SW 11 16.09 Partly Cloudy FEW017 SCT028 27 23     82%   29 1021        
Aug 16 16:18 S 13 16.09 Mostly Cloudy SCT019 BKN028 27 24     82%   30 1021        
Aug 16 15:58 S 26 16.09 Mostly Cloudy FEW021 FEW027 BKN090 28 24     77%   32 1021 1020.7 0 0  
Aug 16 13:29 SSE 17 16.09 Clear CLR 32 23     59%   37 1021        
Aug 16 12:58 SSE 15 16.09 Thunderstorms CLR 32 24     62%   38 1021 1020.6      
Aug 16 12:54 SSE 13 16.09 Thunderstorms CLR 32 24     62%   38 1021        
Aug 16 12:38 SE 17 16.09 Clear CLR 32 24     63%   37 1021        
Aug 16 12:22 SSE 15 16.09 Thunderstorms CLR 31 24     66%   37 1021        
Aug 16 12:13 S 11 16.09 Clear CLR 31 25     70%   38 1021        
Aug 16 11:58 SSE 13 16.09 Thunderstorms FEW023 FEW028 30 24     72%   36 1021 1020.6      
Aug 16 11:51 S 13 16.09 Thunderstorms SCT026 31 24     70%   36 1021        
Aug 16 11:38 S 8 16.09 Mostly Cloudy FEW022 BKN028 BKN041 31 24     68%   37 1021.3        
Aug 16 10:58 Calm 16.09 Partly Cloudy SCT016 30 25     75%   36 1021.3 1021      
Aug 16 10:34 SSE 8 16.09 Partly Cloudy SCT014 30 25     75%   36 1021.7        
Aug 16 10:25 S 8 16.09 Mostly Cloudy BKN013 29 25     80%   34 1021.7        
Aug 16 09:53 5 16.09 Partly Cloudy SCT010 28 25     82%   33 1021.7        
Aug 16 09:34 WSW 5 16.09 Mostly Cloudy BKN010 27 24     85%   31 1021.7        
Aug 16 08:58 5 16.09 Cloudy OVC008 27 25     88%   31 1021.3 1020.9      
Aug 16 07:58 Calm 16.09 Cloudy OVC006 26 25     96%   27 1021.3 1020.8      
Aug 16 06:58 Calm 8.05 Fog/Mist BKN006 24 24     97%   25 1020.7 1020.2      
Aug 16 06:03 Calm 9.66 Fog/Mist SCT004 24 24     97%   25 1020.3        
Aug 16 05:58 Calm 9.66 Fog/Mist BKN004 24 24     97%   25 1020.3 1019.6      
Aug 16 05:11 Calm 14.48 Cloudy OVC004 24 24     97%   25 1019.7        
Aug 16 04:58 Calm 11.27 Cloudy OVC005 24 24     97%   25 1019.7 1019.1      
Aug 16 04:21 Calm 12.87 Cloudy BKN005 OVC015 24 24     97%   25 1019.3        
Aug 16 04:09 Calm 14.48 Mostly Cloudy SCT005 BKN015 24 24     100%   25 1019        
Aug 16 03:58 Calm 14.48 Mostly Cloudy BKN005 24 24     97%   25 1019 1018.4      
Aug 16 03:19 Calm 16.09 Mostly Cloudy BKN005 24 24     100%   25 1018.6        
Aug 16 02:58 Calm 16.09 Mostly Clear FEW006 24 24     100%   25 1018.3 1017.9      
Aug 16 02:22 Calm 14.48 Mostly Clear FEW006 24 23     96%   25 1018.6        
Aug 16 01:58 Calm 14.48 Clear CLR 23 22     96%   24 1018.6 1018      
Aug 16 00:58 Calm 16.09 Clear CLR 23 23     100%   24 1019 1018.5      
Aug 15 23:58 Calm 16.09 Clear CLR 24 23     96%   25 1019.3 1018.8      
Aug 15 22:58 Calm 16.09 Clear CLR 24 23     94%   25 1019 1018.6      
Aug 15 21:58 Calm 16.09 Clear CLR 25 23     90%   26 1019 1018.4      
Aug 15 20:58 Calm 16.09 Clear CLR 26 23     85%   26 1018.6 1018.1      
Aug 15 19:58 Calm 16.09 Clear CLR 26 23     85%   28 1018.3 1017.9      
Aug 15 18:58 SE 9 16.09 Clear CLR 28 24     79%   32 1018 1017.5      
Aug 15 18:16 SSE 22 16.09 Mostly Cloudy BKN050 32 23     61%   37 1017.6        
Aug 15 17:58 Calm 16.09 Thunderstorms SCT055 BKN120 33 23     56%   38 1017.3 1016.9      
Aug 15 17:27 ENE 13 16.09 Mostly Cloudy SCT055 BKN100 32 22     56%   36 1017.3        
Aug 15 16:58 S 11 16.09 Thunderstorms CLR 31 21     54%   34 1017.3 1016.8      
Aug 15 16:14 Calm 16.09 Thunderstorms SCT044 34 23     53%   40 1016.9        
Aug 15 15:58 Calm 16.09 Mostly Clear FEW044 34 23     51%   40 1016.9 1016.3      
Aug 15 14:58 Calm 16.09 Mostly Clear FEW042 34 23     54%   40 1017.3 1016.7      
Aug 15 13:58 8 16.09 Partly Cloudy SCT040 34 23     54%   40 1017.6 1017.1      
Aug 15 11:58 SSE 9 16.09 Clear CLR 33 24     60%   39 1018.6 1018.2      
Aug 15 10:58 5 16.09 Clear CLR 32 24     65%   38 1019 1018.4      
Aug 15 09:58 Calm 16.09 Clear CLR 29 23     70%   34 1019 1018.5      
Aug 15 08:58 Calm 16.09 Clear CLR 28 23     77%   31 1018.6 1018.2      
Aug 15 07:58 Calm 16.09 Clear CLR 26 23     85%   28 1018.3 1018      
Aug 15 06:58 Calm 16.09 Mostly Clear FEW006 23 22     96%   24 1018 1017.6      
Aug 15 05:58 Calm 14.48 Clear CLR 22 21     96%   22 1017.6 1017.1      
Aug 15 04:58 Calm 16.09 Clear CLR 22 22     100%   23 1016.9 1016.4      
Aug 15 03:58 Calm 12.87 Clear CLR 22 22     97%   23 1016.9 1016.4      
Aug 15 03:13 W 5 16.09 Partly Cloudy SCT004 23 22     96%   24 1016.6        
Aug 15 02:58 Calm 16.09 Mostly Cloudy BKN005 23 23     97%   24 1016.6 1016.3      
Aug 15 02:35 NNW 5 16.09 Mostly Cloudy BKN006 23 22     96%   24 1016.9        
Aug 15 02:10 Calm 16.09 Mostly Clear FEW006 23 22     96%   24 1016.9        
Aug 15 01:58 Calm 16.09 Clear CLR 23 22     96%   24 1016.9 1016.5      
Aug 15 00:58 Calm 16.09 Clear CLR 23 22     96%   24 1016.9 1016.6      
Aug 14 23:58 Calm 16.09 Clear CLR 23 23     100%   24 1017.6 1017.1      
Aug 14 22:58 Calm 16.09 Clear CLR 23 23     97%   24 1017.6 1017.2      
May 15 12:58 E 8 16.09 Cloudy OVC075 29 20     59%   31   1013.2     0
May 15 03:58 Calm 16.09 Clear   21 19     90%       1014.2      
May 14 23:58 SSE 9 16.09 Clear CLR 23 19     79%   23 1014.6 1014      
May 14 18:58 ESE 15 16.09 Clear CLR 28 19     57%   30   1013.2      
May 14 16:58 SE 8 16.09 Clear CLR 31 21     55%   33 1013.6 1013.2      
May 14 04:58 Calm 8.05 Fog/Mist CLR 22 21     96%   22 1015.6 1015      
May 13 13:58 8 16.09 Mostly Clear FEW070 36 16     31%   36 1016.9 1016.7      
May 13 05:58 Calm 8.05 Fog/Mist CLR 18 17     93%     1018.3 1017.7      
May 13 03:58 WNW 5 12.87 Clear CLR 18 17     93%     1016.9 1016.5      
May 12 10:58 11 16.09 Clear CLR 32 17     41%   33 1020.7 1020.3      
May 12 00:58 Calm 16.09 Clear CLR 18 17     93%       1018.5      
May 11 23:58 Calm 16.09 Clear CLR 18 17     90%     1019.3 1018.7      
May 11 19:58 Calm 16.09 Clear CLR 23 20     84%   23   1017.3      
May 11 13:58 NE 5 16.09 Clear CLR 33 14     32%   33   1018.2      
May 11 11:58 5 16.09 Clear CLR 32 17     41%   32 1020.3 1019.7      
Jun 12 05:58 Calm 12.87 Clear CLR 22 21     93%   23 1020.3 1019.9      
Jun 11 16:58 S 11 16.09 Clear CLR 28 23     72%   32 1018.6 1018.3      
Jun 11 15:31 SSE 15 16.09 Clear   29 23     68%   33 1020        
Jun 11 14:58 SSE 24 16.09 Cloudy FEW031 BKN042 OVC070 30 23     65%   34 1020 1019.6      
Jun 11 04:33 SE 8 16.09 Partly Cloudy SCT022 24 22     88%   25 1018.6        
Jun 10 15:58 ESE 8 16.09 Mostly Clear FEW080 32 16     37%   32 1016.9 1016.5      
Jun 10 07:58 ESE 8 16.09 Clear CLR 24 18     71%   24 1018.3 1017.9      
Jun 09 16:58 9 16.09 Mostly Clear FEW080 31 16     42%   31 1012.9 1012.4      
Jun 09 11:58 8 16.09 Mostly Clear FEW050 29 16     44%   29 1014.9 1014.3      
Jun 09 08:58 Calm 16.09 Clear CLR 26 17     56%   26 1014.9 1014.5      
Jun 09 04:58 Calm 9.66 Fog/Mist CLR 16 15     93%     1012.5 1012.1      
Jun 09 01:58 Calm 11.27 Clear CLR 17 16     93%     1011.9 1011.3      
Jun 07 21:58 Calm 16.09 Clear CLR 21 18     84%     1009.5 1009.2      
Jun 07 12:05 NE 15 14.48 Light Rain FEW014 SCT024 OVC042 23 21     87%   23 1007.8   0    
Jun 07 10:09 NNE 8 8.05 Light Rain and Fog/Mist FEW010 BKN020 OVC028 23 22     94%   24 1007.5   0    
Jun 07 09:27 Calm 16.09 Cloudy BKN010 OVC015 23 21     87%   24 1007.5        
Jun 07 08:58 8 16.09 Cloudy BKN010 OVC014 23 21     90%   23 1007.1 1006.8      
Jun 06 15:18 SE 13 16.09 Mostly Cloudy BKN024 BKN038 28 22     72%   30 1005.4        
Notice The following observation data may not be complete
Jun 06 06:58   16.09 Cloudy OVC055          %              
Jun 06 02:12 Calm 16.09 Cloudy BKN006 OVC055 24 22     90%   25 1008.5        
Jun 05 19:29 ESE 5 16.09 Mostly Cloudy BKN026 BKN032 26 22     79%   28 1008.8